Hourly Weather Samarqand

Today, 7 August, Friday

Time Temperature Precipitation Wind Pressure Humidity
00:00 +27°C° 0 mm 3 mps 695 mmHg 28%
01:00 +27°C° 0 mm 3 mps 695 mmHg 28%
02:00 +26°C° 0 mm 3 mps 695 mmHg 28%
03:00 +25°C° 0 mm 3 mps 695 mmHg 28%
04:00 +25°C° 0 mm 2 mps 695 mmHg 30%
05:00 +26°C° 0 mm 3 mps 695 mmHg 27%
06:00 +28°C° 0 mm 3 mps 696 mmHg 23%
07:00 +30°C° 0 mm 3 mps 697 mmHg 19%
08:00 +31°C° 0 mm 3 mps 697 mmHg 18%
09:00 +34°C° 0 mm 3 mps 696 mmHg 17%
10:00 +36°C° 0 mm 3 mps 696 mmHg 16%
11:00 +37°C° 0 mm 3 mps 696 mmHg 16%
12:00 +38°C° 0 mm 3 mps 696 mmHg 15%
13:00 +39°C° 0 mm 3 mps 696 mmHg 15%
14:00 +40°C° 0 mm 4 mps 696 mmHg 15%
15:00 +40°C° 0 mm 4 mps 696 mmHg 15%
16:00 +40°C° 0 mm 4 mps 695 mmHg 15%
17:00 +37°C° 0 mm 4 mps 695 mmHg 18%
18:00 +35°C° 0 mm 4 mps 695 mmHg 20%
19:00 +33°C° 0 mm 4 mps 695 mmHg 23%
20:00 +31°C° 0 mm 3 mps 694 mmHg 25%
21:00 +29°C° 0 mm 2 mps 694 mmHg 27%
22:00 +28°C° 0 mm 2 mps 694 mmHg 29%
23:00 +27°C° 0 mm 2 mps 694 mmHg 31%

Tomorrow, 8 August, Saturday

Time Temperature Precipitation Wind Pressure Humidity
00:00 +26°C° 0 mm 1 mps 694 mmHg 32%
01:00 +26°C° 0 mm 1 mps 694 mmHg 33%
02:00 +25°C° 0 mm 1 mps 694 mmHg 34%
03:00 +24°C° 0 mm 1 mps 694 mmHg 35%
04:00 +24°C° 0 mm 1 mps 694 mmHg 36%
05:00 +25°C° 0 mm 1 mps 694 mmHg 33%
06:00 +27°C° 0 mm 1 mps 695 mmHg 30%
07:00 +29°C° 0 mm 1 mps 695 mmHg 27%
08:00 +30°C° 0 mm 1 mps 695 mmHg 25%
09:00 +32°C° 0 mm 2 mps 695 mmHg 23%
10:00 +34°C° 0 mm 3 mps 695 mmHg 21%
11:00 +35°C° 0 mm 3 mps 695 mmHg 20%
12:00 +36°C° 0 mm 3 mps 695 mmHg 19%
13:00 +37°C° 0 mm 4 mps 695 mmHg 18%
14:00 +36°C° 0 mm 4 mps 694 mmHg 19%
15:00 +35°C° 0 mm 4 mps 694 mmHg 20%
16:00 +35°C° 0 mm 4 mps 694 mmHg 20%
17:00 +33°C° 0 mm 4 mps 694 mmHg 22%
18:00 +32°C° 0 mm 4 mps 694 mmHg 23%
19:00 +30°C° 0 mm 3 mps 693 mmHg 24%
20:00 +28°C° 0 mm 3 mps 693 mmHg 25%
21:00 +27°C° 0 mm 2 mps 693 mmHg 27%
22:00 +25°C° 0 mm 2 mps 693 mmHg 28%
23:00 +25°C° 0 mm 1 mps 693 mmHg 29%

Day after tomorrow, 9 August, Sunday

Time Temperature Precipitation Wind Pressure Humidity
00:00 +24°C° 0 mm 1 mps 693 mmHg 30%
01:00 +24°C° 0 mm 1 mps 693 mmHg 32%
02:00 +23°C° 0 mm 1 mps 693 mmHg 33%
03:00 +23°C° 0 mm 1 mps 693 mmHg 34%
04:00 +22°C° 0 mm 1 mps 693 mmHg 35%
05:00 +24°C° 0 mm 1 mps 693 mmHg 32%
06:00 +26°C° 0 mm 1 mps 694 mmHg 29%
07:00 +28°C° 0 mm 2 mps 694 mmHg 26%
08:00 +29°C° 0 mm 2 mps 695 mmHg 24%
09:00 +31°C° 0 mm 2 mps 695 mmHg 22%
10:00 +34°C° 0 mm 2 mps 695 mmHg 19%
11:00 +35°C° 0 mm 2 mps 695 mmHg 18%
12:00 +36°C° 0 mm 2 mps 694 mmHg 16%
13:00 +37°C° 0 mm 2 mps 694 mmHg 15%
14:00 +37°C° 0 mm 3 mps 694 mmHg 14%
15:00 +37°C° 0 mm 3 mps 694 mmHg 14%
16:00 +37°C° 0 mm 4 mps 693 mmHg 13%
17:00 +35°C° 0 mm 3 mps 693 mmHg 15%
18:00 +33°C° 0 mm 3 mps 693 mmHg 17%
19:00 +29°C° 0 mm 2 mps 693 mmHg 20%
20:00 +28°C° 0 mm 2 mps 693 mmHg 22%
21:00 +27°C° 0 mm 2 mps 693 mmHg 24%
22:00 +26°C° 0 mm 1 mps 692 mmHg 26%
23:00 +26°C° 0 mm 1 mps 692 mmHg 28%

10 August, Monday

Time Temperature Precipitation Wind Pressure Humidity
00:00 +25°C° 0 mm 1 mps 692 mmHg 29%
01:00 +25°C° 0 mm 1 mps 692 mmHg 30%
02:00 +24°C° 0 mm 1 mps 692 mmHg 31%
03:00 +24°C° 0 mm 1 mps 692 mmHg 33%
04:00 +23°C° 0 mm 1 mps 692 mmHg 34%
05:00 +26°C° 0 mm 1 mps 692 mmHg 30%
06:00 +28°C° 0 mm 1 mps 693 mmHg 26%
07:00 +30°C° 0 mm 1 mps 693 mmHg 23%
08:00 +32°C° 0 mm 1 mps 693 mmHg 21%
09:00 +33°C° 0 mm 1 mps 694 mmHg 18%
10:00 +36°C° 0 mm 2 mps 694 mmHg 16%
11:00 +37°C° 0 mm 3 mps 694 mmHg 15%
12:00 +38°C° 0 mm 3 mps 694 mmHg 14%
13:00 +40°C° 0 mm 4 mps 693 mmHg 13%
14:00 +40°C° 0 mm 5 mps 693 mmHg 12%
15:00 +40°C° 0 mm 5 mps 693 mmHg 11%
16:00 +40°C° 0 mm 6 mps 693 mmHg 11%
17:00 +36°C° 0 mm 5 mps 693 mmHg 13%
18:00 +34°C° 0 mm 4 mps 693 mmHg 15%
19:00 +31°C° 0 mm 3 mps 693 mmHg 17%
20:00 +29°C° 0 mm 2 mps 693 mmHg 19%
21:00 +28°C° 0 mm 2 mps 693 mmHg 21%
22:00 +26°C° 0 mm 1 mps 693 mmHg 23%
23:00 +26°C° 0 mm 1 mps 693 mmHg 24%

11 August, Tuesday

Time Temperature Precipitation Wind Pressure Humidity
00:00 +26°C° 0 mm 1 mps 693 mmHg 25%
01:00 +25°C° 0 mm 1 mps 693 mmHg 26%
02:00 +25°C° 0 mm 1 mps 693 mmHg 28%
03:00 +24°C° 0 mm 2 mps 693 mmHg 31%
04:00 +24°C° 0 mm 2 mps 693 mmHg 34%
05:00 +25°C° 0 mm 2 mps 693 mmHg 32%
06:00 +27°C° 0 mm 2 mps 694 mmHg 30%
07:00 +29°C° 0 mm 2 mps 694 mmHg 29%
08:00 +31°C° 0 mm 2 mps 694 mmHg 25%
09:00 +34°C° 0 mm 2 mps 694 mmHg 21%
10:00 +35°C° 0 mm 2 mps 695 mmHg 17%
11:00 +37°C° 0 mm 3 mps 695 mmHg 16%
12:00 +38°C° 0 mm 3 mps 694 mmHg 14%
13:00 +40°C° 0 mm 4 mps 694 mmHg 12%
14:00 +40°C° 0 mm 5 mps 694 mmHg 12%
15:00 +39°C° 0 mm 5 mps 694 mmHg 12%
16:00 +39°C° 0 mm 5 mps 694 mmHg 11%
17:00 +36°C° 0 mm 5 mps 694 mmHg 14%
18:00 +33°C° 0 mm 4 mps 694 mmHg 17%
19:00 +30°C° 0 mm 3 mps 694 mmHg 20%
20:00 +29°C° 0 mm 3 mps 694 mmHg 22%
21:00 +27°C° 0 mm 3 mps 694 mmHg 24%
22:00 +26°C° 0 mm 3 mps 694 mmHg 26%
23:00 +25°C° 0 mm 3 mps 694 mmHg 26%

12 August, Wednesday

Time Temperature Precipitation Wind Pressure Humidity
00:00 +24°C° 0 mm 2 mps 694 mmHg 26%
01:00 +24°C° 0 mm 2 mps 693 mmHg 26%
02:00 +23°C° 0 mm 2 mps 693 mmHg 26%
03:00 +23°C° 0 mm 2 mps 693 mmHg 27%
04:00 +21°C° 0 mm 2 mps 693 mmHg 27%
05:00 +24°C° 0 mm 3 mps 694 mmHg 25%
06:00 +25°C° 0 mm 3 mps 694 mmHg 22%
07:00 +27°C° 0 mm 3 mps 695 mmHg 20%
08:00 +29°C° 0 mm 3 mps 695 mmHg 18%
09:00 +31°C° 0 mm 3 mps 695 mmHg 16%
10:00 +34°C° 0 mm 3 mps 695 mmHg 14%
11:00 +35°C° 0 mm 3 mps 695 mmHg 13%
12:00 +36°C° 0 mm 3 mps 695 mmHg 12%
13:00 +37°C° 0 mm 3 mps 695 mmHg 11%
14:00 +37°C° 0 mm 3 mps 695 mmHg 11%
15:00 +38°C° 0 mm 3 mps 695 mmHg 11%
16:00 +38°C° 0 mm 4 mps 695 mmHg 11%
17:00 +35°C° 0 mm 3 mps 695 mmHg 13%
18:00 +33°C° 0 mm 3 mps 695 mmHg 15%
19:00 +29°C° 0 mm 3 mps 695 mmHg 18%
20:00 +28°C° 0 mm 3 mps 695 mmHg 19%
21:00 +26°C° 0 mm 3 mps 695 mmHg 20%
22:00 +25°C° 0 mm 3 mps 695 mmHg 22%
23:00 +24°C° 0 mm 3 mps 694 mmHg 22%
Show more